FW5282 Weather Reports


Display with metric or nautical units.
time (UTC)temp
F
wind
direction
speed
MPH
gust
MPH
rain 1hr
in
rain 24hr
in
rain mn
in
humidity
%
barometer
mb
20260905171032 78 5 2.0 6.0 0.00 0.00 0.00 41 1022.4
20260905170545 79 331 3.0 10.0 0.00 0.00 0.00 40 1022.4
20260905170041 79 346 4.0 10.0 0.00 0.00 0.00 39 1022.4
20260905165535 79 348 3.0 7.0 0.00 0.00 0.00 40 1022.4
20260905165050 80 360 2.0 8.0 0.00 0.00 0.00 39 1022.4
20260905164530 80 337 4.0 8.0 0.00 0.00 0.00 39 1022.3
20260905164058 80 23 1.0 8.0 0.00 0.00 0.00 39 1022.3
20260905163600 80 360 2.0 8.0 0.00 0.00 0.00 39 1022.1
20260905163036 80 360 4.0 10.0 0.00 0.00 0.00 40 1022.2
20260905162532 79 360 5.0 10.0 0.00 0.00 0.00 40 1022.3
20260905162027 80 5 4.0 9.0 0.00 0.00 0.00 39 1022.3
20260905161539 80 9 5.0 9.0 0.00 0.00 0.00 39 1022.4
20260905161028 80 338 2.0 9.0 0.00 0.00 0.00 39 1022.3
20260905160549 80 53 0.0 10.0 0.00 0.00 0.00 42 1022.3
20260905160036 80 351 6.0 10.0 0.00 0.00 0.00 39 1022.3
20260905155547 80 42 5.0 8.0 0.00 0.00 0.00 39 1022.3
20260905155036 80 16 1.0 10.0 0.00 0.00 0.00 40 1022.3
20260905154546 80 325 2.0 12.0 0.00 0.00 0.00 39 1022.4
20260905154039 81 360 5.0 12.0 0.00 0.00 0.00 39 1022.3
20260905153533 82 342 3.0 10.0 0.00 0.00 0.00 38 1022.3
20260905153026 82 319 3.0 10.0 0.00 0.00 0.00 40 1022.4
20260905152542 81 313 3.0 6.0 0.00 0.00 0.00 39 1022.3
20260905152032 81 14 2.0 5.0 0.00 0.00 0.00 41 1022.4
20260905151554 81 5 1.0 8.0 0.00 0.00 0.00 40 1022.4
20260905151027 81 348 3.0 11.0 0.00 0.00 0.00 41 1022.6
20260905150535 81 5 4.0 11.0 0.00 0.00 0.00 40 1022.6
20260905150040 81 329 1.0 9.0 0.00 0.00 0.00 41 1022.6
20260905145557 81 5 2.0 9.0 0.00 0.00 0.00 41 1022.6
20260905145027 81 335 2.0 6.0 0.00 0.00 0.00 41 1022.6
20260905144547 82 25 2.0 10.0 0.00 0.00 0.00 41 1022.6
20260905144042 82 190 1.0 10.0 0.00 0.00 0.00 42 1022.7
20260905143531 81 360 5.0 10.0 0.00 0.00 0.00 41 1022.7
20260905143031 81 307 2.0 9.0 0.00 0.00 0.00 42 1022.7
20260905142545 81 5 3.0 9.0 0.00 0.00 0.00 43 1022.7
20260905142042 80 313 2.0 6.0 0.00 0.00 0.00 43 1022.7
20260905141539 80 49 2.0 9.0 0.00 0.00 0.00 43 1022.8
20260905141036 80 5 4.0 9.0 0.00 0.00 0.00 43 1022.9
20260905140614 80 47 3.0 9.0 0.00 0.00 0.00 44 1022.9
20260905140042 80 344 2.0 9.0 0.00 0.00 0.00 43 1022.9
20260905135533 80 320 4.0 9.0 0.00 0.00 0.00 43 1022.9
20260905135055 80 355 4.0 9.0 0.00 0.00 0.00 44 1023.0
20260905134529 81 38 0.0 9.0 0.00 0.00 0.00 42 1022.9
20260905134054 80 308 2.0 9.0 0.00 0.00 0.00 44 1023.0
20260905133554 80 9 5.0 9.0 0.00 0.00 0.00 44 1023.0
20260905133042 79 333 2.0 8.0 0.00 0.00 0.00 45 1023.0
20260905132537 80 344 3.0 6.0 0.00 0.00 0.00 44 1022.9
20260905132030 80 60 3.0 8.0 0.00 0.00 0.00 44 1023.0
20260905131607 80 323 2.0 8.0 0.00 0.00 0.00 45 1023.0
20260905131038 79 321 2.0 9.0 0.00 0.00 0.00 45 1023.0
20260905130550 79 71 2.0 8.0 0.00 0.00 0.00 46 1023.0
20260905130035 79 46 3.0 6.0 0.00 0.00 0.00 46 1023.0
20260905125545 79 9 2.0 7.0 0.00 0.00 0.00 46 1023.1
20260905125050 78 32 4.0 9.0 0.00 0.00 0.00 47 1023.2
20260905124540 78 337 4.0 11.0 0.00 0.00 0.00 47 1023.1
20260905124027 78 329 4.0 11.0 0.00 0.00 0.00 47 1023.1
20260905123542 78 26 3.0 8.0 0.00 0.00 0.00 46 1023.1
20260905123034 79 342 2.0 8.0 0.00 0.00 0.00 46 1023.2
20260905122528 79 197 3.0 8.0 0.00 0.00 0.00 46 1023.2
20260905122029 79 19 2.0 8.0 0.00 0.00 0.00 47 1023.2
20260905121551 78 213 3.0 9.0 0.00 0.00 0.00 48 1023.2
20260905121027 78 346 5.0 9.0 0.00 0.00 0.00 48 1023.2
20260905120551 78 50 1.0 8.0 0.00 0.00 0.00 49 1023.2
20260905120043 77 327 1.0 9.0 0.00 0.00 0.00 48 1023.3
20260905115536 77 13 4.0 9.0 0.00 0.00 0.00 49 1023.3
20260905115101 77 300 3.0 11.0 0.00 0.00 0.00 50 1023.3
20260905114558 77 355 2.0 9.0 0.00 0.00 0.00 51 1023.4
20260905114106 77 191 1.0 8.0 0.00 0.00 0.00 51 1023.4
20260905113539 77 167 3.0 8.0 0.00 0.00 0.00 51 1023.5
20260905113035 77 304 3.0 8.0 0.00 0.00 0.00 50 1023.5
20260905112530 76 318 4.0 8.0 0.00 0.00 0.00 51 1023.5
20260905112031 76 328 2.0 8.0 0.00 0.00 0.00 53 1023.5
20260905111545 75 42 1.0 5.0 0.00 0.00 0.00 52 1023.6
20260905111037 76 11 1.0 2.0 0.00 0.00 0.00 52 1023.6
20260905110618 76 329 1.0 8.0 0.00 0.00 0.00 51 1023.6
20260905110050 75 272 2.0 8.0 0.00 0.00 0.00 53 1023.6
20260905105541 74 325 3.0 9.0 0.00 0.00 0.00 57 1023.7
20260905105028 73 360 3.0 9.0 0.00 0.00 0.00 56 1023.7
20260905104540 73 320 4.0 9.0 0.00 0.00 0.00 57 1023.6
20260905104033 73 50 4.0 8.0 0.00 0.00 0.00 58 1023.7
20260905103531 73 33 3.0 9.0 0.00 0.00 0.00 58 1023.6
20260905103043 73 355 2.0 10.0 0.00 0.00 0.00 58 1023.6
20260905102543 73 351 6.0 10.0 0.00 0.00 0.00 59 1023.6
20260905102055 74 32 2.0 8.0 0.00 0.00 0.00 58 1023.6
20260905101555 73 325 1.0 7.0 0.00 0.00 0.00 59 1023.5
20260905101027 72 327 2.0 10.0 0.00 0.00 0.00 61 1023.5
20260905100539 72 33 5.0 10.0 0.00 0.00 0.00 61 1023.4
20260905100030 72 360 4.0 9.0 0.00 0.00 0.00 61 1023.4
20260905095543 72 46 4.0 9.0 0.00 0.00 0.00 62 1023.4
20260905095039 71 355 2.0 9.0 0.00 0.00 0.00 62 1023.4
20260905094534 71 44 5.0 10.0 0.00 0.00 0.00 63 1023.5
20260905094028 72 348 4.0 10.0 0.00 0.00 0.00 62 1023.4
20260905093540 72 336 4.0 9.0 0.00 0.00 0.00 64 1023.4
20260905093039 72 9 3.0 9.0 0.00 0.00 0.00 61 1023.4
20260905092558 72 328 2.0 8.0 0.00 0.00 0.00 62 1023.4
20260905092031 71 17 4.0 8.0 0.00 0.00 0.00 63 1023.3
20260905091607 71 323 4.0 9.0 0.00 0.00 0.00 64 1023.3
20260905091028 70 5 4.0 9.0 0.00 0.00 0.00 64 1023.3
20260905090545 70 343 3.0 8.0 0.00 0.00 0.00 66 1023.3
20260905090037 70 20 3.0 8.0 0.00 0.00 0.00 66 1023.2
20260905085529 70 332 5.0 9.0 0.00 0.00 0.00 66 1023.3
20260905085037 69 324 4.0 9.0 0.00 0.00 0.00 67 1023.2
20260905084546 69 34 4.0 10.0 0.00 0.00 0.00 70 1023.2
20260905084040 69 30 4.0 9.0 0.00 0.00 0.00 68 1023.2
20260905083558 69 5 4.0 9.0 0.00 0.00 0.00 68 1023.3
20260905083028 69 334 4.0 8.0 0.00 0.00 0.00 70 1023.3
20260905082607 68 360 3.0 8.0 0.00 0.00 0.00 71 1023.2
20260905082039 68 16 2.0 9.0 0.00 0.00 0.00 71 1023.2
20260905081531 68 24 4.0 9.0 0.00 0.00 0.00 72 1023.1
20260905081044 68 360 4.0 9.0 0.00 0.00 0.00 71 1023.0
20260905080537 67 33 4.0 10.0 0.00 0.00 0.00 73 1023.0
20260905080039 67 5 3.0 10.0 0.00 0.00 0.00 74 1023.0
20260905075557 67 23 3.0 11.0 0.00 0.00 0.00 74 1023.0
20260905075032 67 360 6.0 10.0 0.00 0.00 0.00 74 1022.9
20260905074541 67 5 4.0 12.0 0.00 0.00 0.00 74 1022.9
20260905074029 66 9 3.0 12.0 0.00 0.00 0.00 76 1022.9
20260905073540 66 10 6.0 9.0 0.00 0.00 0.00 76 1022.9
20260905073032 66 15 4.0 8.0 0.00 0.00 0.00 76 1022.8
20260905072543 66 355 4.0 8.0 0.00 0.00 0.00 76 1022.7
20260905072034 66 18 4.0 8.0 0.00 0.00 0.00 76 1022.7
20260905071530 66 346 3.0 8.0 0.00 0.00 0.00 77 1022.6
20260905071041 66 355 3.0 8.0 0.00 0.00 0.00 78 1022.5
20260905070557 66 355 2.0 6.0 0.00 0.00 0.00 79 1022.5
20260905070045 65 355 2.0 6.0 0.00 0.00 0.00 79 1022.4
20260905065537 65 339 2.0 9.0 0.00 0.00 0.00 80 1022.4
20260905065033 65 24 4.0 8.0 0.00 0.00 0.00 80 1022.5
20260905064548 65 329 3.0 6.0 0.00 0.00 0.00 80 1022.5
20260905064031 64 13 2.0 6.0 0.00 0.00 0.00 80 1022.4
20260905063543 64 11 2.0 6.0 0.00 0.00 0.00 80 1022.4
20260905063037 64 355 3.0 6.0 0.00 0.00 0.00 80 1022.3
20260905062530 64 300 1.0 10.0 0.00 0.00 0.00 80 1022.3
20260905062027 64 348 3.0 8.0 0.00 0.00 0.00 80 1022.3
20260905061606 64 5 2.0 6.0 0.00 0.00 0.00 80 1022.2
20260905061036 64 348 2.0 6.0 0.00 0.00 0.00 80 1022.2
20260905060546 64 346 1.0 11.0 0.00 0.00 0.00 80 1022.1
20260905060041 64 355 4.0 11.0 0.00 0.00 0.00 80 1022.1
20260905055533 64 338 3.0 8.0 0.00 0.00 0.00 80 1022.0
20260905055029 64 335 3.0 11.0 0.00 0.00 0.00 80 1022.0
20260905054545 64 360 4.0 11.0 0.00 0.00 0.00 80 1021.9
20260905054033 64 309 4.0 8.0 0.00 0.00 0.00 80 1021.8
20260905053536 64 334 3.0 9.0 0.00 0.00 0.00 81 1021.8
20260905053031 64 355 4.0 8.0 0.00 0.00 0.00 81 1021.7
20260905052531 64 344 3.0 9.0 0.00 0.00 0.00 81 1021.6
20260905052045 64 337 4.0 8.0 0.00 0.00 0.00 81 1021.5
20260905051544 65 319 2.0 9.0 0.00 0.00 0.00 81 1021.4
20260905051038 65 344 4.0 9.0 0.00 0.00 0.00 81 1021.4
20260905050550 65 331 3.0 9.0 0.00 0.00 0.00 82 1021.2
20260905050034 65 355 3.0 9.0 0.00 0.00 0.00 82 1021.2
20260905045543 65 337 3.0 8.0 0.00 0.00 0.00 82 1021.2
20260905045044 65 9 4.0 8.0 0.00 0.00 0.00 82 1021.1
20260905044541 65 5 3.0 6.0 0.00 0.00 0.00 82 1021.1
20260905044037 65 340 3.0 6.0 0.00 0.00 0.00 82 1021.1
20260905043532 65 5 3.0 8.0 0.00 0.00 0.00 82 1021.0
20260905043103 65 326 4.0 9.0 0.00 0.00 0.00 82 1021.0
20260905042536 65 324 4.0 9.0 0.00 0.00 0.00 84 1020.9
20260905042046 65 336 4.0 9.0 0.00 0.00 0.00 85 1020.9
20260905041544 65 329 4.0 9.0 0.00 0.00 0.00 87 1021.0
20260905041041 65 327 2.0 6.0 0.00 0.00 0.00 88 1021.0
20260905040534 65 9 3.0 6.0 0.00 0.00 0.00 88 1020.9
20260905040030 65 338 3.0 6.0 0.00 0.00 0.00 88 1020.8
20260905035609 65 342 2.0 4.0 0.00 0.00 0.00 88 1020.8
20260905035029 65 335 1.0 4.0 0.00 0.00 0.00 88 1020.8
20260905034604 65 305 2.0 4.0 0.00 0.00 0.00 88 1020.7
20260905034040 65 355 1.0 4.0 0.00 0.00 0.00 88 1020.7
20260905033557 65 341 2.0 4.0 0.00 0.00 0.00 88 1020.6
20260905033105 65 331 1.0 2.0 0.00 0.00 0.00 88 1020.6
20260905032535 66 332 1.0 4.0 0.00 0.00 0.00 87 1020.6
20260905032032 66 360 2.0 4.0 0.00 0.00 0.00 87 1020.6
20260905031540 66 351 2.0 4.0 0.00 0.00 0.00 86 1020.5
20260905031037 66 22 1.0 4.0 0.00 0.00 0.00 86 1020.5
20260905030528 66 329 1.0 4.0 0.00 0.00 0.00 85 1020.4
20260905030055 66 5 2.0 8.0 0.00 0.00 0.00 85 1020.4
20260905025529 66 339 4.0 8.0 0.00 0.00 0.00 84 1020.4
20260905025043 66 342 3.0 8.0 0.00 0.00 0.00 84 1020.3
20260905024543 67 355 2.0 5.0 0.00 0.00 0.00 83 1020.4
20260905024040 67 333 1.0 6.0 0.00 0.00 0.00 82 1020.3
20260905023558 67 19 2.0 6.0 0.00 0.00 0.00 82 1020.2
20260905023030 67 5 1.0 8.0 0.00 0.00 0.00 82 1020.2
20260905022542 67 331 4.0 8.0 0.00 0.00 0.00 82 1020.2
20260905022046 67 350 2.0 6.0 0.00 0.00 0.00 81 1019.9
20260905021541 67 5 3.0 8.0 0.00 0.00 0.00 81 1019.9
20260905021028 67 328 1.0 8.0 0.00 0.00 0.00 81 1019.7
20260905020538 67 5 2.0 8.0 0.00 0.00 0.00 81 1019.7
20260905020032 67 19 3.0 8.0 0.00 0.00 0.00 81 1019.8
20260905015545 67 339 2.0 5.0 0.00 0.00 0.00 82 1019.6
20260905015042 67 5 2.0 6.0 0.00 0.00 0.00 82 1019.8
20260905014540 67 9 2.0 8.0 0.00 0.00 0.00 81 1019.6
20260905014027 67 17 3.0 10.0 0.00 0.00 0.00 81 1019.6
20260905013604 68 13 5.0 10.0 0.00 0.00 0.00 82 1019.6
20260905013037 68 339 6.0 10.0 0.00 0.00 0.00 82 1019.6
20260905012533 68 17 6.0 10.0 0.00 0.00 0.00 83 1019.6
20260905012044 68 355 7.0 10.0 0.00 0.00 0.00 83 1019.5
20260905011542 68 16 4.0 9.0 0.00 0.00 0.00 84 1019.4
20260905011029 68 349 1.0 4.0 0.00 0.00 0.00 85 1019.3
20260905010540 68 323 1.0 3.0 0.00 0.00 0.00 85 1019.3
20260905010033 68 11 2.0 5.0 0.00 0.00 0.00 85 1019.3
20260905005545 68 350 1.0 5.0 0.00 0.00 0.00 84 1019.2
20260905005042 68 360 2.0 5.0 0.00 0.00 0.00 84 1019.3
20260905004601 68 350 1.0 5.0 0.00 0.00 0.00 84 1019.3
20260905004035 68 329 2.0 5.0 0.00 0.00 0.00 84 1019.4
20260905003543 69 360 3.0 5.0 0.00 0.00 0.00 84 1019.3
20260905003036 69 342 2.0 6.0 0.00 0.00 0.00 84 1019.3
20260905002547 69 360 4.0 6.0 0.00 0.00 0.00 84 1019.2
20260905002044 69 344 3.0 6.0 0.00 0.00 0.00 83 1019.2
20260905001602 69 5 3.0 6.0 0.00 0.00 0.00 83 1019.1
20260905001037 69 19 4.0 8.0 0.00 0.00 0.00 83 1019.0
20260905000528 69 355 3.0 8.0 0.00 0.00 0.00 82 1019.1
20260905000044 69 13 2.0 10.0 0.00 0.00 0.00 82 1019.2
20260904235548 69 355 3.0 10.0 0.00 0.00 0.00 82 1019.2
20260904235032 69 30 3.0 9.0 0.00 0.00 0.00 82 1019.0
20260904234533 69 5 4.0 10.0 0.00 0.00 0.00 82 1019.0
20260904234042 70 5 4.0 10.0 0.00 0.00 0.00 81 1019.1
20260904233539 70 355 4.0 9.0 0.00 0.00 0.00 81 1019.0
20260904233052 70 349 4.0 9.0 0.00 0.00 0.00 81 1019.0
20260904232548 70 318 3.0 6.0 0.00 0.00 0.00 81 1019.0
20260904232046 70 325 2.0 8.0 0.00 0.00 0.00 80 1018.9
20260904231545 70 334 4.0 8.0 0.00 0.00 0.00 79 1018.8
20260904231043 71 348 1.0 8.0 0.00 0.00 0.00 79 1019.0
20260904230535 71 24 3.0 8.0 0.00 0.00 0.00 79 1018.9
20260904230028 71 360 3.0 11.0 0.00 0.00 0.00 78 1019.0
20260904225544 71 15 5.0 11.0 0.00 0.00 0.00 78 1019.0
20260904225034 71 303 5.0 9.0 0.00 0.00 0.00 78 1019.0
20260904224531 71 355 5.0 11.0 0.00 0.00 0.00 77 1018.9
20260904224045 72 360 5.0 11.0 0.00 0.00 0.00 77 1018.9
20260904223537 72 355 4.0 11.0 0.00 0.00 0.00 78 1018.8
20260904223106 72 355 4.0 11.0 0.00 0.00 0.00 78 1018.8
20260904222600 72 355 5.0 8.0 0.00 0.00 0.00 78 1018.7
20260904222052 72 335 4.0 9.0 0.00 0.00 0.00 78 1018.6
20260904221543 72 323 4.0 11.0 0.00 0.00 0.00 77 1018.6
20260904221042 72 355 5.0 11.0 0.00 0.00 0.00 77 1018.6
20260904220541 73 350 4.0 14.0 0.00 0.00 0.00 75 1018.7
20260904220036 73 355 6.0 14.0 0.00 0.00 0.00 72 1018.7
20260904215532 74 313 5.0 9.0 0.00 0.00 0.00 70 1018.5
20260904215029 74 322 2.0 8.0 0.00 0.00 0.00 70 1018.4
20260904214537 74 342 3.0 9.0 0.00 0.00 0.00 70 1018.4
20260904214031 74 325 3.0 9.0 0.00 0.00 0.00 69 1018.4
20260904213531 74 321 2.0 9.0 0.00 0.00 0.00 69 1018.4
20260904213027 74 342 4.0 7.0 0.00 0.00 0.00 69 1018.3
20260904212529 74 355 2.0 8.0 0.00 0.00 0.00 69 1018.4
20260904212053 74 306 3.0 8.0 0.00 0.00 0.00 69 1018.4
20260904211531 74 338 4.0 6.0 0.00 0.00 0.00 70 1018.3
20260904211057 74 328 3.0 8.0 0.00 0.00 0.00 70 1018.4
20260904210529 74 355 4.0 8.0 0.00 0.00 0.00 70 1018.4
20260904210049 74 336 2.0 4.0 0.00 0.00 0.00 71 1018.4
20260904205542 74 346 2.0 5.0 0.00 0.00 0.00 71 1018.2
20260904205040 74 355 1.0 3.0 0.00 0.00 0.00 71 1018.2
20260904204534 74 296 1.0 3.0 0.00 0.00 0.00 71 1018.0
20260904204029 74 284 1.0 3.0 0.00 0.00 0.00 71 1017.9
20260904203539 74 304 1.0 3.0 0.00 0.00 0.00 71 1017.9
20260904203027 74 306 2.0 4.0 0.00 0.00 0.00 71 1017.9
20260904202547 74 318 1.0 4.0 0.00 0.00 0.00 70 1017.9
20260904202039 75 292 1.0 4.0 0.00 0.00 0.00 70 1017.9
20260904201535 75 324 1.0 4.0 0.00 0.00 0.00 69 1018.0
20260904201038 76 334 2.0 4.0 0.00 0.00 0.00 69 1017.9
20260904200555 76 332 1.0 4.0 0.00 0.00 0.00 68 1017.9
20260904200039 76 336 1.0 6.0 0.00 0.00 0.00 68 1017.9
20260904195532 76 321 3.0 6.0 0.00 0.00 0.00 68 1017.7
20260904195054 76 340 2.0 4.0 0.00 0.00 0.00 68 1017.7
20260904194547 76 355 1.0 8.0 0.00 0.00 0.00 68 1017.5
20260904194035 76 285 2.0 9.0 0.00 0.00 0.00 68 1017.5
20260904193547 76 355 3.0 9.0 0.00 0.00 0.00 68 1017.5
20260904193038 77 323 2.0 5.0 0.00 0.00 0.00 67 1017.4
20260904192548 77 309 2.0 6.0 0.00 0.00 0.00 67 1017.3
20260904192041 77 288 2.0 6.0 0.00 0.00 0.00 67 1017.1
20260904191534 77 306 2.0 5.0 0.00 0.00 0.00 66 1017.1
20260904191027 77 355 2.0 6.0 0.00 0.00 0.00 66 1017.1
20260904190539 77 318 2.0 8.0 0.00 0.00 0.00 66 1017.0
20260904190028 77 306 4.0 8.0 0.00 0.00 0.00 66 1016.9
20260904185534 77 306 1.0 4.0 0.00 0.00 0.00 66 1016.8
20260904185046 77 308 2.0 6.0 0.00 0.00 0.00 65 1016.8
20260904184547 77 290 3.0 8.0 0.00 0.00 0.00 65 1016.7
20260904184058 77 306 3.0 8.0 0.00 0.00 0.00 65 1016.6
20260904183535 78 304 3.0 8.0 0.00 0.00 0.00 64 1016.5
20260904183032 78 296 3.0 9.0 0.00 0.00 0.00 64 1016.5
20260904182536 78 305 4.0 9.0 0.00 0.00 0.00 64 1016.4
20260904182046 78 306 2.0 9.0 0.00 0.00 0.00 63 1016.4
20260904181540 79 292 4.0 11.0 0.00 0.00 0.00 62 1016.4
20260904181035 79 284 5.0 11.0 0.00 0.00 0.00 62 1016.2
20260904180553 79 324 3.0 9.0 0.00 0.00 0.00 62 1016.2
20260904180043 79 321 3.0 8.0 0.00 0.00 0.00 62 1016.2
20260904175533 79 327 3.0 12.0 0.00 0.00 0.00 61 1016.1
20260904175041 80 314 6.0 12.0 0.00 0.00 0.00 61 1016.1
20260904174534 80 269 4.0 9.0 0.00 0.00 0.00 60 1016.1
20260904174054 81 297 5.0 12.0 0.00 0.00 0.00 60 1016.2
20260904173553 81 295 7.0 12.0 0.00 0.00 0.00 59 1016.1
20260904173031 81 333 4.0 11.0 0.00 0.00 0.00 59 1016.0
20260904172545 81 305 5.0 10.0 0.00 0.00 0.00 58 1016.0
20260904172037 82 350 5.0 12.0 0.00 0.00 0.00 58 1016.0
20260904171547 82 314 8.0 13.0 0.00 0.00 0.00 57 1015.9